1508864401.15,267,10.81,73900.0,-6.11,-32.13,-36.07,0,*54
1508864402.41,268,10.81,73902.5,-6.09,-31.91,-35.95,0,*53
1508864403.6,269,10.81,73904.3,-6.09,-32.13,-36.19,0,*5C
1508864404.79,270,10.81,73904.8,-6.09,-32.23,-36.19,0,*57
1508864405.99,271,10.81,73902.5,-6.09,-32.23,-36.19,0,*56
1508864407.18,272,10.81,73906.3,-6.09,-32.39,-36.31,0,*54
1508864408.4,273,10.81,73900.3,-6.09,-32.39,-36.37,0,*53
1508864409.65,274,10.81,73896.5,-6.09,-32.45,-36.49,0,*56
1508864410.86,275,10.81,73896.8,-6.09,-32.39,-36.37,0,*55
1508864412.08,276,10.81,73900.0,-6.09,-32.39,-36.37,0,*56
1508864413.27,277,10.81,73900.3,-6.09,-32.23,-36.19,0,*50
1508864414.47,278,10.81,73898.3,-6.09,-32.23,-36.19,0,*5F
1508864415.68,279,10.81,73896.0,-6.09,-32.23,-36.13,0,*54
1508864416.88,280,10.81,73898.5,-6.09,-32.39,-36.31,0,*59
1508864418.12,281,10.81,73898.5,-6.07,-32.29,-36.19,0,*5D
1508864419.38,282,10.81,73900.5,-6.09,-32.07,-35.95,0,*5B
1508864420.64,283,10.81,73900.5,-6.09,-31.95,-35.95,0,*52
1508864421.83,284,10.81,73898.5,-6.09,-32.13,-36.19,0,*5F
1508864423.09,285,10.81,73902.0,-6.07,-31.91,-35.89,0,*53
1508864424.38,286,10.81,73906.5,-6.07,-31.95,-35.95,0,*59
1508864425.64,287,10.81,73906.8,-6.07,-32.07,-36.01,0,*5E
1508864426.9,288,10.81,73904.8,-6.07,-32.07,-36.01,0,*51
1508864428.16,289,10.81,73904.3,-6.07,-32.07,-36.01,0,*50
1508864429.38,290,10.81,73906.3,-6.05,-31.73,-35.71,0,*5E
1508864430.64,291,10.81,73904.0,-6.07,-32.07,-35.89,0,*5A
1508864431.9,292,10.81,73908.5,-6.07,-31.91,-36.01,0,*56
1508864433.14,293,10.81,73908.5,-6.07,-32.13,-36.13,0,*5D
1508864434.4,294,10.81,73904.5,-6.07,-32.07,-36.31,0,*5F
1508864435.62,295,10.81,73900.5,-6.07,-32.13,-36.19,0,*51
1508864436.85,296,10.81,73902.8,-6.05,-32.01,-36.25,0,*5C
1508864438.09,297,10.81,73904.3,-6.07,-32.23,-36.13,0,*5A
1508864439.38,298,10.81,73904.8,-6.07,-31.95,-35.95,0,*56
1508864440.66,299,10.81,73904.0,-6.07,-31.91,-35.95,0,*53
1508864441.89,300,10.81,73902.5,-6.07,-31.79,-35.89,0,*59
1508864443.17,301,10.81,73900.5,-6.07,-31.95,-36.13,0,*5A
1508864444.42,302,10.81,73900.0,-6.07,-32.07,-36.31,0,*51
1508864445.68,303,10.81,73906.5,-6.07,-32.07,-36.01,0,*53
1508864446.94,304,10.81,73904.8,-6.05,-31.85,-35.83,0,*56
1508864448.16,305,10.81,73910.0,-6.05,-31.73,-35.71,0,*53
1508864449.44,306,10.81,73904.5,-6.07,-31.91,-35.95,0,*54
1508864450.7,307,10.81,73904.3,-6.05,-31.85,-35.83,0,*55
1508864451.91,308,10.81,73898.3,-6.01,-32.01,-35.89,0,*5B
1508864453.13,309,10.81,73898.5,-6.01,-32.01,-36.13,0,*5A
1508864454.33,310,10.81,73898.3,-6.01,-32.01,-36.01,0,*51
1508864455.55,311,10.81,73902.0,-6.01,-32.19,-36.07,0,*5F
1508864456.74,312,10.81,73904.8,-6.01,-32.13,-36.07,0,*56
1508864457.97,313,10.81,73904.0,-6.01,-31.95,-36.01,0,*5C
1508864459.22,314,10.81,73906.0,-6.05,-32.07,-36.13,0,*54
1508864460.44,315,10.81,73904.0,-6.07,-32.23,-36.19,0,*5B
1508864461.69,316,10.81,73904.8,-6.05,-32.07,-36.13,0,*56
1508864462.94,317,10.81,73904.5,-6.05,-32.07,-36.25,0,*52
1508864464.17,318,10.81,73910.0,-6.05,-31.91,-35.89,0,*54
1508864465.41,319,10.81,73908.5,-6.05,-31.85,-35.89,0,*50
1508864466.64,320,10.81,73910.8,-6.05,-31.85,-35.89,0,*5A
1508864467.83,321,10.81,73908.5,-6.05,-31.67,-35.71,0,*50
1508864469.08,322,10.81,73912.3,-6.01,-31.61,-35.65,0,*54
1508864470.28,323,10.81,73914.0,-6.01,-31.67,-35.77,0,*50
1508864471.53,324,10.81,73920.0,-6.01,-31.85,-35.83,0,*50
1508864472.76,325,10.81,73916.8,-6.01,-31.95,-36.01,0,*59
1508864474.01,326,10.81,73924.3,-6.01,-31.85,-35.83,0,*52
1508864475.21,327,10.81,73926.5,-6.01,-31.79,-35.77,0,*5B
1508864476.41,328,10.81,73928.0,-6.01,-31.79,-35.77,0,*54
1508864477.61,329,10.81,73914.8,-6.01,-31.67,-35.77,0,*5A
1508864478.84,330,10.81,73912.0,-6.01,-31.79,-35.83,0,*56
1508864480.08,331,10.81,73914.3,-5.99,-31.95,-36.07,0,*58
1508864481.27,332,10.81,73908.3,-6.01,-32.13,-36.07,0,*54
1508864482.51,333,10.81,73910.5,-5.99,-32.19,-36.19,0,*52
1508864483.73,334,10.81,73908.0,-5.99,-32.13,-36.19,0,*5F
1508864484.92,335,10.81,73904.5,-6.01,-32.13,-36.19,0,*5C
1508864486.13,336,10.81,73902.8,-5.99,-32.13,-36.07,0,*52
1508864487.32,337,10.81,73898.5,-6.01,-32.13,-36.19,0,*5E
1508864488.58,338,10.81,73894.8,-5.99,-31.85,-35.89,0,*55
1508864489.81,339,10.81,73892.3,-5.99,-31.67,-35.65,0,*5A
1508864491.04,340,10.81,73892.5,-5.97,-31.61,-35.71,0,*59
1508864492.26,341,10.81,73898.5,-5.97,-31.79,-35.83,0,*5C
1508864493.51,342,10.81,73898.5,-5.97,-31.95,-35.83,0,*5D
1508864494.74,343,10.81,73902.3,-5.97,-31.61,-35.77,0,*5C
1508864495.99,344,10.81,73908.0,-5.97,-31.91,-35.95,0,*58
1508864497.24,345,10.81,73902.5,-5.97,-31.91,-35.95,0,*59
1508864498.45,346,10.81,73898.0,-5.99,-32.35,-36.19,0,*5E
1508864499.72,347,10.81,73888.5,-5.99,-32.29,-36.25,0,*5D
1508864500.98,348,10.81,73898.0,-5.99,-32.29,-36.25,0,*52
1508864502.22,349,10.81,73890.3,-5.99,-32.19,-36.19,0,*5F
1508864503.48,350,10.81,73896.8,-5.99,-32.29,-36.37,0,*58
1508864504.75,351,10.81,73896.5,-5.99,-32.19,-36.25,0,*59
1508864505.97,352,10.81,73900.3,-5.97,-32.23,-36.13,0,*58
1508864507.22,353,10.81,73900.8,-5.97,-32.07,-35.95,0,*52
1508864508.45,354,10.81,73908.5,-5.97,-31.45,-35.41,0,*59
1508864509.69,355,10.81,73908.0,-5.99,-31.61,-35.47,0,*56
1508864510.91,356,10.81,73904.5,-5.99,-32.13,-36.07,0,*54
1508864512.14,357,10.81,73908.3,-5.99,-32.29,-36.19,0,*53
1508864513.4,358,10.81,73902.5,-5.99,-32.29,-36.37,0,*50
1508864514.61,359,10.81,73900.0,-5.99,-32.35,-36.43,0,*5F
1508864515.83,360,10.81,73900.5,-5.99,-32.39,-36.43,0,*59
1508864517.04,361,10.81,73896.5,-6.01,-32.35,-36.37,0,*55
1508864518.28,362,10.81,73898.8,-5.99,-32.35,-36.25,0,*57
1508864519.52,363,10.81,73898.5,-5.99,-32.19,-36.19,0,*57
1508864520.77,364,10.81,73900.0,-6.01,-31.95,-35.83,0,*55
1508864522.0,365,10.81,73894.8,-5.97,-31.79,-35.83,0,*5A
1508864523.22,366,10.81,73892.0,-5.97,-31.79,-35.95,0,*5E
1508864524.44,367,10.81,73892.3,-5.97,-31.61,-35.59,0,*56
1508864525.66,368,10.81,73892.5,-5.97,-31.29,-35.23,0,*58
1508864526.89,369,10.81,73900.0,-5.95,-31.29,-35.35,0,*5C
1508864528.14,370,10.81,73900.8,-5.95,-31.91,-35.83,0,*5A
1508864529.34,371,10.81,73900.5,-5.97,-31.79,-35.77,0,*54
1508864530.57,372,10.81,73892.5,-5.95,-32.13,-36.13,0,*5B
1508864531.79,373,10.81,73894.8,-5.97,-32.13,-36.13,0,*58
1508864533.01,374,10.81,73896.0,-5.95,-32.23,-36.13,0,*5E
1508864534.23,375,10.81,73896.8,-5.95,-32.13,-36.13,0,*5C
1508864535.45,376,10.81,73902.5,-5.97,-32.23,-36.13,0,*5E
1508864536.69,377,10.81,73902.3,-5.95,-31.95,-36.01,0,*50
1508864537.93,378,10.81,73900.3,-5.97,-32.07,-36.13,0,*56
1508864539.12,379,10.81,73898.0,-5.97,-32.13,-36.19,0,*58
1508864540.31,380,10.81,73896.5,-5.97,-32.13,-36.31,0,*54
1508864541.53,381,10.81,73894.0,-5.97,-32.29,-36.19,0,*56
1508864542.72,382,10.81,73892.8,-5.97,-32.13,-36.19,0,*5C
1508864543.94,383,10.81,73888.8,-5.95,-32.29,-36.31,0,*5C
1508864545.15,384,10.81,73892.5,-5.97,-32.35,-36.37,0,*52
1508864546.35,385,10.81,73894.0,-5.97,-32.35,-36.37,0,*53
1508864547.54,386,10.81,73896.5,-5.97,-32.35,-36.19,0,*5C
1508864548.75,387,10.81,73896.3,-5.97,-32.29,-36.31,0,*5A
1508864549.97,388,10.81,73894.3,-5.97,-32.29,-36.31,0,*55
1508864551.21,389,10.81,73896.8,-5.99,-32.35,-36.25,0,*52
1508864552.47,390,10.81,73896.3,-5.99,-32.29,-36.25,0,*57
1508864553.69,391,10.81,73894.8,-5.99,-32.01,-36.19,0,*53
1508864554.95,392,10.81,73896.3,-5.97,-32.07,-35.95,0,*5F
1508864556.2,393,10.81,73898.5,-5.97,-31.91,-35.83,0,*55
1508864557.42,394,10.81,73900.8,-5.97,-31.95,-36.01,0,*5F
1508864558.65,395,10.81,73896.5,-5.97,-32.07,-36.01,0,*56
1508864559.91,396,10.81,73902.8,-5.97,-31.95,-35.95,0,*53
1508864561.15,397,10.81,73900.5,-5.95,-32.07,-36.01,0,*56
1508864562.37,398,10.81,73902.3,-5.95,-32.13,-36.13,0,*5F
1508864563.62,399,10.81,73898.5,-5.95,-32.29,-36.49,0,*58
1508864564.86,400,10.81,73904.5,-5.95,-32.45,-36.37,0,*5C
1508864566.09,401,10.81,73900.5,-5.97,-32.45,-36.55,0,*5B
1508864567.28,402,10.81,73896.3,-5.97,-32.51,-36.67,0,*5C
1508864568.5,403,10.81,73892.3,-5.97,-32.63,-36.73,0,*59
1508864569.72,404,10.81,73894.0,-5.97,-32.63,-36.73,0,*5E
1508864570.92,405,10.81,73890.3,-5.97,-32.51,-36.67,0,*5B
1508864572.16,406,10.81,73892.3,-5.99,-32.51,-36.61,0,*50
1508864573.4,407,10.81,73892.0,-5.99,-32.51,-36.61,0,*51
1508864574.62,408,10.81,73888.8,-5.99,-32.39,-36.43,0,*50
1508864575.84,409,10.81,73894.3,-6.01,-32.19,-36.19,0,*5E
1508864577.05,410,10.81,73896.0,-5.99,-32.13,-36.07,0,*51
1508864578.27,411,10.81,73900.3,-6.01,-32.19,-36.19,0,*57
1508864579.49,412,10.81,73894.0,-6.01,-32.19,-36.07,0,*5B
1508864580.7,413,10.81,73902.3,-6.01,-32.29,-36.19,0,*56
1508864581.94,414,10.81,73902.3,-5.99,-32.29,-36.19,0,*53
1508864583.13,415,10.81,73898.3,-5.97,-32.13,-36.01,0,*5C
1508864584.37,416,10.81,73898.8,-6.01,-32.29,-36.37,0,*5F
1508864585.59,417,10.81,73902.5,-5.99,-32.01,-36.07,0,*55
1508864586.83,418,10.81,73900.0,-5.99,-32.19,-36.19,0,*5C
1508864588.1,419,10.81,73898.3,-5.99,-32.29,-36.25,0,*51
1508864589.31,420,10.81,73896.8,-6.01,-32.19,-36.19,0,*55
1508864590.56,421,10.81,73900.3,-5.97,-31.95,-35.83,0,*5F
1508864591.81,422,10.81,73900.8,-5.97,-32.07,-36.13,0,*5E
1508864593.01,423,10.81,73906.0,-5.97,-32.13,-36.01,0,*59
1508864594.19,424,10.81,73904.3,-6.01,-32.35,-36.19,0,*5F
1508864595.44,425,10.81,73900.5,-5.99,-32.39,-36.25,0,*5F
1508864596.68,426,10.81,73902.0,-5.99,-32.35,-36.25,0,*50
1508864597.89,427,10.81,73906.5,-5.99,-32.13,-36.19,0,*5A
1508864599.12,428,10.81,73902.5,-5.99,-32.01,-36.01,0,*5F
1508864600.34,429,10.81,73902.3,-5.99,-32.13,-36.07,0,*5B
1508864601.58,430,10.81,73902.5,-5.99,-32.19,-36.19,0,*56
1508864602.81,431,10.81,73900.8,-5.99,-32.29,-36.19,0,*54
1508864604.08,432,10.81,73900.5,-5.99,-32.29,-36.25,0,*58
1508864605.3,433,10.81,73900.5,-5.99,-32.13,-36.01,0,*56
1508864606.53,434,10.81,73902.5,-5.99,-32.01,-36.01,0,*52
1508864607.73,435,10.81,73898.0,-5.97,-31.79,-35.77,0,*53
1508864608.99,436,10.81,73900.3,-5.97,-31.95,-35.95,0,*5E
1508864610.22,437,10.81,73900.3,-5.97,-32.07,-36.01,0,*59
1508864611.46,438,10.81,73902.0,-5.99,-32.35,-36.25,0,*5F
1508864612.69,439,10.81,73902.0,-5.99,-32.01,-36.01,0,*5F
1508864613.94,440,10.81,73896.3,-5.97,-31.91,-35.83,0,*5C
1508864615.15,441,10.81,73902.0,-5.97,-32.13,-36.13,0,*5E
1508864616.37,442,10.81,73902.0,-5.97,-32.13,-36.13,0,*5D
1508864617.63,443,10.81,73900.8,-5.95,-32.07,-35.95,0,*56
1508864618.85,444,10.81,73902.8,-5.97,-31.61,-35.59,0,*50
1508864620.07,445,10.81,73902.5,-5.97,-32.23,-36.13,0,*59
1508864621.32,446,10.81,73904.3,-5.99,-31.95,-35.89,0,*5A
1508864622.55,447,10.81,73904.8,-5.95,-32.13,-36.13,0,*5A
1508864623.76,448,10.81,73904.5,-5.97,-32.29,-36.19,0,*54
1508864624.99,449,10.81,73906.0,-5.95,-31.79,-35.83,0,*51
1508864626.19,450,10.81,73908.0,-5.97,-31.79,-35.77,0,*50
1508864627.42,451,10.81,73908.3,-5.97,-31.95,-36.01,0,*51
1508864628.64,452,10.81,73914.3,-5.97,-32.13,-36.13,0,*5C
1508864629.84,453,10.81,73912.8,-5.97,-32.13,-36.01,0,*5E
1508864631.05,454,10.81,73904.0,-5.97,-32.23,-36.13,0,*59
1508864632.26,455,10.81,73902.3,-5.97,-32.29,-36.19,0,*58
1508864633.48,456,10.81,73898.5,-5.97,-32.29,-36.31,0,*51
1508864634.69,457,10.81,73902.5,-5.97,-32.29,-36.19,0,*5A
1508864635.93,458,10.81,73900.0,-5.97,-31.95,-36.13,0,*5B
1508864637.13,459,10.81,73898.3,-5.97,-32.13,-36.01,0,*54
1508864638.35,460,10.81,73890.8,-5.97,-31.29,-35.35,0,*50
1508864639.57,461,10.81,73898.0,-5.97,-31.45,-35.35,0,*5B
1508864640.83,462,10.81,73900.0,-5.95,-31.11,-35.07,0,*5A
1508864642.07,463,10.81,73902.8,-5.97,-31.23,-35.23,0,*5E
1508864643.29,464,10.81,73902.8,-5.95,-31.29,-35.35,0,*56
1508864644.55,465,10.81,73902.8,-5.95,-31.57,-35.35,0,*5E
1508864645.78,466,10.81,73904.3,-5.95,-31.57,-35.59,0,*57
1508864647.01,467,10.81,73904.5,-5.95,-31.61,-35.71,0,*59
1508864648.27,468,10.81,73908.0,-5.95,-32.07,-35.83,0,*58
1508864649.52,469,10.81,73904.5,-5.95,-31.91,-35.83,0,*55
1508864650.79,470,10.81,73908.5,-5.95,-32.07,-35.95,0,*56
1508864652.05,471,10.81,73906.5,-5.95,-31.95,-35.95,0,*5F
1508864653.28,472,10.81,73910.5,-5.97,-31.91,-35.77,0,*56
1508864654.53,473,10.81,73908.0,-5.97,-32.07,-35.83,0,*50
1508864655.73,474,10.81,73902.3,-5.95,-31.79,-35.71,0,*52
1508864657.01,475,10.81,73904.5,-5.93,-31.95,-35.83,0,*5A
1508864658.25,476,10.81,73906.3,-5.95,-32.07,-36.01,0,*5E
1508864659.45,477,10.81,73904.8,-5.97,-32.13,-36.01,0,*58
1508864660.67,478,10.81,73906.5,-5.95,-32.13,-36.13,0,*56
1508864661.88,479,10.81,73908.0,-5.95,-32.23,-36.01,0,*57
1508864663.09,480,10.81,73904.8,-5.97,-32.23,-36.13,0,*50
1508864664.32,481,10.81,73906.3,-5.95,-32.23,-36.13,0,*53
1508864665.57,482,10.81,73908.5,-5.95,-31.91,-35.83,0,*50
1508864666.8,483,10.81,73908.0,-5.95,-31.73,-35.71,0,*50
1508864668.07,484,10.81,73904.0,-5.95,-31.95,-35.95,0,*55
1508864669.29,485,10.81,73906.3,-5.97,-32.13,-35.95,0,*5B
1508864670.55,486,10.81,73910.8,-5.95,-31.61,-35.53,0,*56
1508864671.8,487,10.81,73908.8,-5.95,-31.57,-35.53,0,*52
1508864673.04,488,10.81,73912.0,-5.95,-32.07,-36.01,0,*5F
1508864674.28,489,10.81,73912.3,-5.95,-32.29,-36.13,0,*51
1508864675.5,490,10.81,73908.5,-5.97,-32.23,-36.13,0,*51
1508864676.75,491,10.75,73908.3,-5.95,-31.91,-35.83,0,*52
1508864678.01,492,10.75,73908.8,-5.95,-31.91,-35.83,0,*51
1508864679.24,493,10.81,73908.5,-5.95,-31.61,-35.71,0,*52
1508864680.46,494,10.81,73914.0,-5.95,-32.13,-36.13,0,*54
1508864681.67,495,10.81,73908.0,-5.95,-32.13,-36.01,0,*56
1508864682.88,496,10.81,73904.8,-5.95,-31.79,-35.77,0,*58
1508864684.11,497,10.81,73908.0,-5.93,-32.23,-36.01,0,*51
1508864685.37,498,10.81,73912.8,-5.95,-32.07,-35.83,0,*57
1508864686.64,499,10.81,73912.0,-5.95,-31.95,-35.95,0,*59
1508864687.9,500,10.81,73902.5,-5.95,-32.07,-35.95,0,*50
1508864689.09,501,10.81,73902.8,-5.97,-32.23,-36.19,0,*52
1508864690.29,502,10.81,73902.5,-5.97,-31.79,-35.77,0,*56
1508864691.49,503,10.81,73896.3,-5.95,-31.79,-35.59,0,*59
1508864692.75,504,10.81,73898.5,-5.95,-31.57,-35.41,0,*5B
1508864693.98,505,10.81,73900.3,-5.95,-31.45,-35.41,0,*59
1508864695.23,506,10.81,73904.5,-5.95,-31.39,-35.41,0,*51
1508864696.48,507,10.75,73900.3,-5.93,-31.45,-35.35,0,*5E
1508864697.68,508,10.81,73904.0,-5.91,-31.33,-35.29,0,*5F
1508864698.94,509,10.81,73908.8,-5.93,-31.73,-35.59,0,*5F
1508864700.17,510,10.81,73914.3,-5.91,-31.95,-35.89,0,*50
1508864701.41,511,10.81,73920.0,-5.91,-31.91,-35.89,0,*55
1508864702.66,512,10.81,73912.8,-5.93,-31.73,-35.71,0,*5F
1508864703.88,513,10.81,73912.5,-5.91,-32.07,-36.07,0,*5E
1508864705.12,514,10.81,73916.0,-5.93,-32.13,-36.01,0,*58
1508864706.36,515,10.81,73912.5,-5.93,-32.13,-36.13,0,*5A
1508864707.61,516,10.81,73910.0,-5.93,-32.23,-36.13,0,*5A
1508864708.81,517,10.81,73910.0,-5.91,-32.01,-36.07,0,*5C
1508864710.07,518,10.81,73908.0,-5.93,-32.07,-36.01,0,*51
1508864711.35,519,10.81,73908.3,-5.93,-31.91,-35.83,0,*55
1508864712.6,520,10.81,73908.5,-5.91,-31.85,-35.65,0,*50
1508864713.86,521,10.81,73908.5,-5.93,-31.79,-35.83,0,*58
1508864715.14,522,10.81,73916.5,-5.93,-31.91,-35.95,0,*5A
1508864716.41,523,10.81,73914.0,-5.93,-32.29,-36.13,0,*56
1508864717.64,524,10.81,73912.0,-5.93,-32.13,-36.01,0,*5B
1508864718.89,525,10.81,73914.0,-5.93,-32.23,-36.13,0,*5A
1508864720.15,526,10.81,73914.0,-5.93,-32.07,-36.01,0,*5C
1508864721.42,527,10.81,73914.3,-5.93,-32.29,-36.13,0,*52
1508864722.66,528,10.81,73910.0,-5.93,-32.29,-36.19,0,*57
1508864723.91,529,10.81,73912.3,-5.93,-32.29,-36.31,0,*5C
1508864725.15,530,10.81,73912.0,-5.93,-32.29,-36.31,0,*54
1508864726.4,531,10.81,73916.3,-5.93,-32.29,-36.31,0,*55
1508864727.65,532,10.81,73912.5,-5.93,-32.29,-36.31,0,*56
1508864728.89,533,10.81,73910.5,-5.93,-32.35,-36.49,0,*55
1508864730.1,534,10.81,73912.8,-5.95,-32.35,-36.37,0,*5D
1508864731.3,535,10.81,73912.5,-5.95,-32.35,-36.31,0,*5A
1508864732.51,536,10.81,73914.0,-5.97,-32.29,-36.19,0,*5C
1508864733.73,537,10.81,73916.8,-5.95,-32.29,-36.19,0,*5F
1508864734.95,538,10.81,73912.5,-5.95,-32.23,-36.13,0,*50
1508864736.2,539,10.81,73912.8,-5.95,-32.29,-36.13,0,*5B
1508864737.41,540,10.81,73910.0,-5.97,-32.35,-36.49,0,*55
1508864738.66,541,10.81,73912.0,-5.95,-32.45,-36.49,0,*51
1508864739.88,542,10.81,73912.0,-5.95,-32.29,-36.19,0,*5D
1508864741.1,543,10.81,73916.3,-5.95,-32.29,-36.19,0,*5C
1508864742.34,544,10.81,73916.0,-5.97,-32.45,-36.37,0,*5F
1508864743.53,545,10.81,73912.3,-5.95,-32.35,-36.31,0,*5D
1508864744.72,546,10.81,73912.0,-5.97,-32.35,-36.19,0,*56
1508864745.93,547,10.81,73908.3,-5.97,-32.29,-36.31,0,*50
1508864747.15,548,10.81,73910.0,-5.95,-32.35,-36.37,0,*56
1508864748.33,549,10.81,73908.8,-5.97,-32.35,-36.19,0,*59
1508864749.52,550,10.81,73910.8,-5.97,-32.23,-36.19,0,*56
1508864750.75,551,10.81,73910.0,-5.95,-32.23,-35.95,0,*52
1508864752.01,552,10.81,73912.0,-5.97,-32.07,-35.95,0,*55
1508864753.22,553,10.81,73908.3,-5.97,-32.23,-36.13,0,*5F
1508864754.41,554,10.81,73912.8,-5.97,-32.23,-36.19,0,*52
1508864755.62,555,10.81,73918.3,-5.97,-32.29,-36.31,0,*53
1508864756.81,556,10.81,73914.5,-5.97,-32.23,-36.19,0,*50
1508864758.02,557,10.81,73912.5,-5.97,-32.29,-36.31,0,*51
1508864759.29,558,10.81,73914.8,-5.99,-32.29,-36.25,0,*55
1508864760.51,559,10.75,73910.5,-5.97,-32.13,-36.13,0,*56
1508864761.7,560,10.81,73910.0,-5.97,-32.23,-36.01,0,*5C
1508864762.94,561,10.81,73910.3,-5.97,-32.29,-36.13,0,*54
1508864764.15,562,10.81,73910.5,-5.97,-32.29,-36.19,0,*5D
1508864765.41,563,10.81,73912.0,-5.97,-32.07,-35.95,0,*57
1508864766.62,564,10.81,73910.8,-5.97,-32.23,-36.13,0,*5B
1508864767.86,565,10.81,73912.0,-5.99,-32.35,-36.25,0,*56
1508864769.09,566,10.81,73912.0,-5.99,-32.35,-36.37,0,*56
1508864770.29,567,10.81,73908.0,-6.01,-32.39,-36.55,0,*5D
1508864771.52,568,10.81,73908.8,-5.99,-32.51,-36.55,0,*5E
1508864772.74,569,10.81,73914.8,-5.99,-32.39,-36.43,0,*56
1508864773.98,570,10.81,73910.8,-5.99,-32.19,-36.07,0,*5C
1508864775.2,571,10.81,73912.0,-5.97,-32.19,-36.01,0,*55
1508864776.39,572,10.81,73914.8,-6.01,-32.13,-36.19,0,*59
1508864777.63,573,10.81,73918.3,-5.99,-32.19,-36.07,0,*5F
1508864778.85,574,10.81,73916.3,-6.01,-32.19,-36.19,0,*55
1508864780.09,575,10.81,73920.8,-5.99,-32.35,-36.25,0,*57
1508864781.36,576,10.81,73926.0,-5.99,-32.29,-36.25,0,*59
1508864782.57,577,10.81,73918.3,-6.01,-32.29,-36.19,0,*55
1508864783.82,578,10.81,73914.8,-5.99,-32.39,-36.25,0,*56
1508864785.03,579,10.81,73910.3,-5.99,-32.39,-36.43,0,*57
1508864786.27,580,10.81,73914.5,-5.99,-32.51,-36.37,0,*5C
1508864787.49,581,10.81,73908.3,-6.01,-32.39,-36.37,0,*51
1508864788.68,582,10.81,73914.0,-6.01,-32.01,-36.07,0,*5A
1508864789.91,583,10.81,73914.5,-6.01,-31.95,-35.89,0,*50
1508864791.16,584,10.81,73918.5,-5.99,-31.61,-35.47,0,*5C
1508864792.4,585,10.81,73918.5,-5.99,-31.79,-35.65,0,*54
1508864793.63,586,10.81,73914.5,-5.99,-32.01,-36.01,0,*5A
1508864794.85,587,10.81,73916.8,-6.01,-32.19,-36.19,0,*59
1508864796.09,588,10.81,73922.3,-5.99,-32.19,-36.19,0,*54
1508864797.33,589,10.81,73918.5,-5.97,-32.29,-36.13,0,*52
1508864798.54,590,10.75,73908.3,-6.01,-32.35,-36.37,0,*5D
1508864799.75,591,10.81,73910.5,-5.99,-32.13,-36.19,0,*56
1508864801.03,592,10.81,73910.3,-5.99,-31.85,-35.83,0,*59
1508864802.27,593,10.81,73902.8,-5.99,-32.19,-36.19,0,*5E
1508864803.51,594,10.81,73896.5,-5.99,-32.19,-36.19,0,*59
1508864804.73,595,10.81,73900.3,-6.01,-32.19,-36.07,0,*55
1508864805.96,596,10.81,73898.3,-5.99,-31.67,-35.65,0,*59
1508864807.21,597,10.81,73906.8,-5.99,-31.79,-35.83,0,*5F
1508864808.43,598,10.81,73904.8,-5.97,-31.61,-35.59,0,*50
1508864809.68,599,10.81,73914.0,-5.97,-31.57,-35.53,0,*5E
1508864810.92,600,10.81,73914.0,-5.97,-31.91,-35.83,0,*5A
1508864812.13,601,10.81,73912.3,-5.97,-31.79,-35.77,0,*56
1508864813.38,602,10.81,73912.0,-5.97,-32.07,-35.95,0,*53
1508864814.58,603,10.81,73912.0,-5.97,-32.13,-36.01,0,*59
1508864815.82,604,10.81,73918.5,-5.97,-32.29,-36.13,0,*54
1508864817.05,605,10.81,73916.5,-5.97,-32.07,-36.01,0,*5A
1508864818.24,606,10.81,73918.0,-5.97,-32.13,-36.01,0,*5C
1508864819.46,607,10.81,73918.8,-5.97,-32.13,-36.13,0,*5E
1508864820.68,608,10.81,73916.5,-5.97,-32.13,-36.13,0,*51
1508864821.89,609,10.81,73916.0,-5.97,-32.23,-36.13,0,*53
1508864823.11,610,10.81,73918.0,-5.97,-32.23,-36.13,0,*5B
1508864824.33,611,10.81,73922.3,-5.97,-32.07,-36.01,0,*5F
1508864825.56,612,10.81,73920.5,-5.97,-31.95,-35.77,0,*56
1508864826.81,613,10.81,73918.8,-5.97,-32.07,-35.83,0,*54
1508864828.07,614,10.81,73922.3,-5.97,-32.07,-35.95,0,*54
1508864829.29,615,10.81,73918.0,-5.97,-32.13,-36.13,0,*5D
1508864830.52,616,10.81,73914.8,-5.97,-32.29,-36.13,0,*57
1508864831.75,617,10.81,73908.3,-5.99,-32.13,-36.01,0,*52
1508864833.0,618,10.81,73914.0,-5.99,-31.85,-35.77,0,*53
1508864834.25,619,10.81,73912.0,-5.99,-31.61,-35.77,0,*58
1508864835.5,620,10.81,73914.3,-5.97,-31.57,-35.53,0,*5F
1508864836.73,621,10.81,73918.5,-5.97,-31.95,-35.77,0,*56
1508864837.96,622,10.81,73916.3,-5.97,-32.07,-36.01,0,*5F
1508864839.21,623,10.81,73914.8,-5.97,-31.95,-35.95,0,*58
1508864840.44,624,10.81,73918.8,-5.97,-31.95,-35.77,0,*53
1508864841.68,625,10.75,73916.0,-5.97,-32.29,-36.13,0,*57
1508864842.89,626,10.81,73920.3,-5.97,-32.29,-36.19,0,*5E
1508864844.1,627,10.81,73918.8,-5.97,-32.29,-36.19,0,*5F
1508864845.29,628,10.81,73914.8,-5.97,-32.35,-36.31,0,*57
1508864846.53,629,10.81,73920.3,-5.99,-31.85,-35.59,0,*5D
1508864847.76,630,10.81,73918.0,-5.99,-31.79,-35.77,0,*5A
1508864848.98,631,10.81,73918.8,-5.97,-31.57,-35.59,0,*55
1508864850.18,632,10.81,73918.5,-5.97,-31.79,-35.77,0,*56
1508864851.39,633,10.75,73916.5,-5.97,-32.13,-36.13,0,*59
1508864852.6,634,10.81,73918.8,-5.97,-32.29,-36.19,0,*5D
1508864853.82,635,10.81,73918.8,-5.97,-32.13,-36.13,0,*5F
1508864855.02,636,10.81,73920.8,-5.97,-32.13,-36.01,0,*5F
1508864856.21,637,10.81,73918.8,-5.97,-31.79,-35.71,0,*55
1508864857.44,638,10.81,73920.3,-5.95,-31.91,-35.71,0,*5E
1508864858.69,639,10.81,73916.5,-5.97,-31.61,-35.53,0,*52
1508864859.89,640,10.81,73920.3,-5.97,-31.79,-35.77,0,*53
1508864861.12,641,10.75,73918.3,-5.95,-31.73,-35.59,0,*56
1508864862.36,642,10.81,73918.5,-5.95,-32.29,-36.13,0,*54
1508864863.58,643,10.81,73922.5,-5.97,-32.29,-36.31,0,*57
1508864864.77,644,10.81,73920.8,-5.97,-32.35,-36.31,0,*5D
1508864865.95,645,10.81,73918.5,-5.97,-32.35,-36.31,0,*5C
1508864867.15,646,10.81,73920.3,-5.97,-32.13,-36.01,0,*58
1508864868.39,647,10.75,73918.5,-5.95,-32.07,-36.01,0,*5E
1508864869.6,648,10.81,73920.0,-5.97,-32.29,-36.19,0,*56
1508864870.82,649,10.81,73922.8,-5.97,-32.13,-36.13,0,*54
1508864872.03,650,10.81,73920.5,-5.97,-32.29,-36.19,0,*5F
1508864873.23,651,10.81,73922.3,-5.97,-32.13,-36.01,0,*5E
1508864874.44,652,10.81,73916.3,-5.97,-32.13,-36.13,0,*5E
1508864875.66,653,10.81,73914.8,-5.97,-32.29,-36.31,0,*56
1508864876.85,654,10.81,73916.0,-5.97,-32.23,-36.19,0,*51
1508864878.07,655,10.75,73912.5,-5.97,-32.13,-35.95,0,*54
1508864879.32,656,10.81,73918.3,-5.95,-32.29,-36.13,0,*51
1508864880.55,657,10.81,73920.0,-5.97,-32.29,-36.13,0,*52
1508864881.77,658,10.81,73922.8,-5.97,-32.29,-36.19,0,*57
1508864882.98,659,10.81,73924.3,-5.97,-32.23,-36.13,0,*56
1508864884.22,660,10.81,73924.8,-5.97,-32.29,-36.13,0,*56
1508864885.43,661,10.81,73920.8,-5.97,-32.23,-36.13,0,*5D
1508864886.65,662,10.81,73922.8,-5.95,-32.23,-36.13,0,*5C
1508864887.84,663,10.81,73920.3,-5.97,-32.23,-36.19,0,*55
1508864889.04,664,10.81,73924.5,-5.97,-32.13,-36.01,0,*58
1508864890.29,665,10.81,73924.3,-5.97,-31.95,-35.83,0,*5D
1508864891.49,666,10.81,73922.0,-5.97,-32.13,-36.01,0,*5A
1508864892.71,667,10.81,73926.8,-5.97,-32.23,-35.95,0,*56
1508864893.95,668,10.81,73928.3,-5.97,-32.29,-36.13,0,*5E
1508864895.18,669,10.81,73926.5,-5.97,-32.07,-36.01,0,*50
1508864896.41,670,10.81,73926.8,-5.97,-32.07,-36.01,0,*58
1508864897.66,671,10.81,73924.5,-5.97,-32.07,-35.95,0,*57
1508864898.92,672,10.81,73928.5,-5.97,-32.07,-35.95,0,*54
1508864900.15,673,10.75,73924.0,-5.95,-31.61,-35.59,0,*54
1508864901.37,674,10.81,73926.8,-5.97,-31.73,-35.77,0,*5E
1508864902.6,675,10.81,73930.5,-5.97,-31.91,-35.77,0,*53
1508864903.85,676,10.81,73930.0,-5.95,-31.61,-35.53,0,*5B
1508864905.08,677,10.81,73928.5,-5.97,-31.61,-35.59,0,*52
1508864906.29,678,10.81,73930.0,-5.97,-32.13,-36.13,0,*56
1508864907.54,679,10.81,73930.8,-5.97,-31.91,-35.83,0,*54
1508864908.79,680,10.81,73928.3,-5.97,-31.95,-35.95,0,*51